EW7112 Weather Reports


time (UTC)temp
C
wind
direction
speed
KPH
gust
KPH
rain 1hr
cm
rain 24hr
cm
rain mn
cm
humidity
%
barometer
mb
20260509153029 26 309 1.6 8.0 0.00 0.00 0.00 66 988.7
20260509151520 25 304 3.2 11.3 0.00 0.00 0.00 68 988.7
20260509150020 25 286 4.8 11.3 0.00 0.00 0.00 71 988.8
20260509144515 24 306 1.6 8.0 0.00 0.00 0.00 74 988.9
20260509143017 23 336 1.6 12.9 0.00 0.00 0.00 77 988.8
20260509141507 23 324 4.8 9.7 0.00 0.00 0.00 78 988.8
20260509140005 23 32 1.6 11.3 0.00 0.00 0.00 79 988.8
20260509134502 22 20 1.6 8.0 0.00 0.00 0.00 82 988.7
20260509133104 21 321 1.6 9.7 0.00 0.00 0.00 84 988.6
20260509131559 21 1 1.6 11.3 0.00 0.00 0.00 85 988.6
20260509130104 20 344 3.2 9.7 0.00 0.00 0.00 86 988.6
20260509124557 20 303 1.6 11.3 0.00 0.33 0.00 87 988.4
20260509123050 20 70 3.2 12.9 0.00 0.33 0.00 87 988.5
20260509121559 20 304 3.2 8.0 0.00 0.33 0.00 87 988.5
20260509120045 20 328 3.2 12.9 0.00 0.33 0.00 86 988.4
20260509114545 20 299 4.8 8.0 0.00 0.33 0.00 86 988.3
20260509113047 20 318 3.2 11.3 0.00 0.33 0.00 85 987.9
20260509111539 19 319 3.2 9.7 0.00 0.33 0.00 86 987.5
20260509110038 19 311 0.0 3.2 0.00 0.33 0.00 86 987.2
20260509104537 20 312 0.0 3.2 0.00 1.32 0.00 86 986.9
20260509103036 20 312 0.0 1.6 0.00 1.32 0.00 86 986.8
20260509101532 20 312 0.0 3.2 0.00 1.32 0.00 85 986.7
20260509100032 21 312 0.0 1.6 0.00 1.32 0.00 84 986.7
20260509094529 21 312 0.0 3.2 0.00 1.68 0.00 83 986.3
20260509093029 21 252 1.6 8.0 0.00 1.68 0.00 83 986.1
20260509091528 21 146 0.0 3.2 0.00 1.68 0.00 84 985.9
20260509090028 21 319 1.6 6.4 0.00 1.68 0.00 85 986.4
20260509084535 21 205 3.2 11.3 0.00 1.70 0.00 85 985.0
20260509083038 21 127 3.2 12.9 0.00 1.70 0.00 84 984.1
20260509081524 21 150 4.8 19.3 0.00 1.70 0.00 85 984.9
20260509080025 21 194 6.4 12.9 0.00 1.70 0.00 84 985.9
20260509074514 21 257 6.4 16.1 0.00 2.46 0.00 85 986.9
20260509073012 21 264 4.8 12.9 0.00 2.46 0.00 85 987.3
20260509071512 21 203 3.2 11.3 0.00 2.46 0.00 86 988.1
20260509070009 21 250 1.6 11.3 0.00 2.46 0.00 86 988.3
20260509064506 21 200 1.6 9.7 0.00 2.46 0.00 86 988.8
20260509063005 21 285 1.6 6.4 0.00 2.46 0.00 86 988.7
20260509061504 20 212 0.0 6.4 0.00 2.46 0.00 85 988.6
20260509060008 20 216 0.0 1.6 0.00 2.46 0.00 85 988.7
20260509054613 20 174 0.0 3.2 0.00 2.46 0.00 84 988.6
20260509053133 21 353 0.0 1.6 0.00 2.46 0.00 83 989.5
20260509051555 21 353 0.0 1.6 0.00 2.46 0.00 82 989.6
20260509050050 21 338 1.6 6.4 0.00 2.46 0.00 82 989.8
20260509044549 21 203 0.0 3.2 0.00 2.46 2.46 81 988.4
20260509043104 22 128 0.0 3.2 0.00 2.46 2.46 80 988.7
20260509041559 22 181 0.0 8.0 0.00 2.46 2.46 80 988.2
20260509040055 22 155 0.0 4.8 0.00 2.46 2.46 79 988.0
20260509034601 22 163 1.6 6.4 0.00 2.46 2.46 79 987.8
20260509033046 22 53 0.0 6.4 0.00 2.46 2.46 78 988.8
20260509031548 22 27 1.6 6.4 0.00 2.46 2.46 78 988.8
20260509030046 22 74 3.2 8.0 0.00 2.46 2.46 78 987.9
20260509024544 22 145 0.0 6.4 0.00 2.46 2.46 78 987.5
20260509023049 22 113 0.0 8.0 0.00 2.46 2.46 78 987.1
20260509021543 22 249 1.6 11.3 0.00 2.46 2.46 78 986.5
20260509020051 22 168 1.6 3.2 0.00 2.46 2.46 78 986.6
20260509014541 22 110 1.6 11.3 0.00 2.46 2.46 77 986.4
20260509013049 22 159 0.0 6.4 0.00 2.46 2.46 77 986.9
20260509011540 22 205 0.0 3.2 0.00 2.46 2.46 76 987.0
20260509010050 22 103 0.0 6.4 0.00 2.46 2.46 76 986.7
20260509004536 22 78 1.6 9.7 0.00 2.46 2.46 76 986.6
20260509003036 23 74 3.2 8.0 0.00 2.46 2.46 74 986.3
20260509001535 23 134 3.2 12.9 0.00 2.46 2.46 73 986.2
20260509000033 23 249 4.8 11.3 0.00 2.46 2.46 72 986.2
20260508234529 23 159 3.2 11.3 0.00 2.46 2.46 71 986.6
20260508233028 23 152 3.2 12.9 0.00 2.46 2.46 70 986.7
20260508231528 24 215 1.6 9.7 0.00 2.46 2.46 69 986.7
20260508230036 24 240 3.2 9.7 0.00 2.46 2.46 68 986.8
20260508224534 25 170 3.2 11.3 0.00 2.46 2.46 66 986.6
20260508223021 24 113 3.2 14.5 0.00 2.46 2.46 68 986.9
20260508221536 24 226 4.8 12.9 0.00 2.46 2.46 66 986.9
20260508220018 25 203 1.6 12.9 0.00 2.46 2.46 65 986.8
20260508214517 24 133 3.2 12.9 0.00 2.46 2.46 67 986.8
20260508213021 24 96 4.8 12.9 0.00 2.46 2.46 67 987.0
20260508211512 23 186 6.4 12.9 0.00 2.46 2.46 65 987.4
20260508210011 24 70 4.8 14.5 0.00 2.46 2.46 64 987.3
20260508204511 24 208 3.2 9.7 0.00 2.46 2.46 66 987.6
20260508203007 22 117 1.6 11.3 0.00 2.46 2.46 70 988.6
20260508201502 22 203 1.6 14.5 0.00 2.46 2.46 69 989.2
20260508200103 23 216 4.8 12.9 0.00 2.46 2.46 68 989.0
20260508194600 23 150 3.2 9.7 0.00 2.46 2.46 68 989.0
20260508193112 23 192 3.2 11.3 0.00 2.46 2.46 69 989.1
20260508191559 23 180 3.2 9.7 0.00 2.46 2.46 68 989.3
20260508190053 23 210 1.6 9.7 0.00 2.46 2.46 68 989.3
20260508184550 23 212 4.8 11.3 0.00 2.46 2.46 67 989.4
20260508183050 24 83 3.2 11.3 0.00 2.46 2.46 66 989.5
20260508181547 24 109 4.8 11.3 0.00 2.46 2.46 65 989.8
20260508180043 24 262 1.6 12.9 0.00 2.46 2.46 66 990.2
20260508174541 23 174 3.2 9.7 0.00 2.46 2.46 66 990.3
20260508173037 23 195 3.2 14.5 0.00 2.46 2.46 66 990.6
20260508171534 22 195 3.2 14.5 0.00 2.46 2.46 67 990.8
20260508170032 22 82 3.2 9.7 0.00 2.46 2.46 67 991.0
20260508164533 21 229 8.0 11.3 0.00 2.46 2.46 68 991.4
20260508163024 21 106 1.6 11.3 0.00 2.46 2.46 67 991.9
20260508161521 21 95 3.2 11.3 0.00 2.46 2.46 70 992.1
20260508160023 20 217 0.0 8.0 0.00 2.46 2.46 72 992.2
20260508154516 20 83 3.2 8.0 0.00 2.46 2.46 74 992.4